OBJECT U, 59071

Orbit data source: Space-Track

You're viewing an Uncataloged Satellite

Recently launched and/or uncataloged satellites may have evolving metadata. Metadata may include but not limited to: Owner, Maufacturer, Bus, Motor, and Mission.

OBJECT U, 59071 is a satellite in LEO that was launched on Thu, 29 Feb 2024 UTC via a SOYUZ-2-1B launch vehicle from the Vostochny Cosmodrome (VOSTO). Unknown objects in Earth's orbit typically refer to objects detected orbiting the Earth but have not yet been identified or cataloged. These objects could be anything from previously untracked satellites, spent rocket stages, debris from satellite collisions, or even natural meteoroids temporarily captured by Earth's gravity.

Loading next visibility...
Identifier
59071, 2024-039U
Orbit
LEO
Country
Flag of TBDTBD
Related business
Manufacturer
Sputniks
Mission
Operational Commercial Communications
Bus & Motor
CUBESAT 3U?, Unknown motor
Mass
3 kg wet, 3 kg dry
Launch date (UTC)
2024-02-29 (2 years ago)
Launch vehicle
SOYUZ-2-1B
Launch site
Vostochny Cosmodrome (VOSTO)
Object type
Unknown
Shape & HBR
Box, 0.1 m
Radar Cross Section
0.035 m², Medium (>0.1 m² and < 1m²)

Expand to show TLE details & history
Last TLE update: 7 hours ago

TLE from 7 hours ago
0 OBJECT U
1 59071U 24039U   26169.59796358  .00002306  00000-0  18086-3 0  9993
2 59071  95.3912 236.2791 0142588 322.8142  36.3272 14.93769557124953
Epoch: 2026-06-18T14:21Z
TLE epoch observation values (Epoch: 2026-06-18T14:21:04.053Z)
Latitude
-0°
Longitude
114.17321°
Altitude
509.784 km
Speed
7.652 km/s
True Right ascension
15h 45m 06s
True Declination
0° 00' 00"
Sunlit
Object was in full shadow at epoch
Visualization orbit readout
Latitude
Unknown
Longitude
Unknown
Altitude
Unknown
Speed
Unknown
Apparent Right ascension
Unknown
Apparent Declination
Unknown
Sunlit
N/A
Visualization observer readout
Local Sidereal Time
07:57:22
Azimuth
Unknown
Elevation
Unknown
Doppler factor
Unknown
Orbital elements
Apogee altitude
682.38 km
Perigee altitude
483.862 km
Semi-major axis
6,961.258 km
Eccentricity
0.01426
Inclination
95.3912°
RAAN
236.2791°
Arg. of periapsis
322.8142°
True anomaly
37.30918°
Mean anomaly
36.3272°
Eccentric anomaly
36.81678°
Mean motion
3.7369 °/min
Orbital period
96.34 mins
BSTAR
0.00018086
Loading maneuver chart data...
Computing Atmospheric mass density...
Loading historical data...
Loading historical data...
Loading historical data...
Loading historical data...
Loading historical data...
Loading historical data...
Loading historical data...

Documentation

Showing up to 5 results
|